This demonstration page uses our WeatherBlox Daily Observations layout. Learn more.

Left ArrowRight Arrow

Hourly Observations for May 20, 2016

Temp ( °F °C ) Dew Point ( °F °C ) Humidity (%) Winds ( mph kmh ) Pressure ( in mb ) Visibility ( mi km ) Precip ( " mm )
12:53 am 00:53 Clear 49 9.4 44 6.7 83 83 N N/A 30.16 1022 10 16 N/A
1:53 am 01:53 Clear 49 9.4 46 7.8 90 90 N N/A 30.16 1021 10 16 N/A
2:53 am 02:53 Clear 54 12.2 44 6.7 69 69 E 6 9 30.13 1020 10 16 N/A
3:53 am 03:53 Clear 55 12.8 43 6.1 64 64 N N/A 30.15 1021 10 16 N/A
4:53 am 04:53 Clear 55 12.8 42 5.6 62 62 E 9 15 30.14 1021 10 16 N/A
5:53 am 05:53 Clear 52 11.1 43 6.1 72 72 E 3 6 30.15 1021 10 16 N/A
6:53 am 06:53 Sunny 55 12.8 41 5 59 59 E 6 9 30.15 1021 10 16 N/A
7:53 am 07:53 Sunny 56 13.3 43 6.1 62 62 ENE 7 11 30.16 1022 10 16 N/A
8:53 am 08:53 Sunny 59 15 44 6.7 58 58 ENE 5 7 30.17 1022 10 16 N/A
9:53 am 09:53 Sunny 61 16.1 44 6.7 54 54 ENE 8 13 30.16 1021 10 16 N/A
10:53 am 10:53 Sunny 64 17.8 47 8.3 54 54 E 12 19 30.14 1021 10 16 N/A
11:53 am 11:53 Sunny 66 18.9 49 9.4 54 54 ENE 10 17 30.12 1020 10 16 N/A
12:53 pm 12:53 Sunny 69 20.6 50 10 51 51 ENE 10 17 30.10 1019 10 16 N/A
1:53 pm 13:53 Sunny 68 20 50 10 53 53 E 12 19 30.07 1018 10 16 N/A
2:53 pm 14:53 Mostly Sunny 68 20 52 11.1 57 57 E 8 13 30.08 1019 10 16 N/A
3:53 pm 15:53 Mostly Cloudy 68 20 53 11.7 59 59 ENE 8 13 30.06 1018 10 16 N/A
4:53 pm 16:53 Cloudy with Light Rain 63 17.2 58 14.4 84 84 ESE 3 6 30.05 1018 7 11 0.02 0.51
5:53 pm 17:53 Cloudy with Rain 62 16.7 59 15 90 90 N N/A 30.05 1018 4 6 0.06 1.52
6:53 pm 18:53 Cloudy with Light Rain 61 16.1 59 15 93 93 E 12 19 30.01 1016 5 8 0.08 2.03
7:53 pm 19:53 Cloudy 61 16.1 58 14.4 90 90 ESE 10 17 29.98 1015 10 16 N/A
8:53 pm 20:53 Cloudy 59 15 56 13.3 90 90 VRB 3 6 30.01 1016 10 16 N/A
9:53 pm 21:53 Cloudy 60 15.6 57 13.9 90 90 N N/A 30.01 1016 10 16 N/A
10:09 pm 22:09 Cloudy 60 15.6 57 13.9 90 90 N N/A 30.03 1017 10 16 N/A
10:21 pm 22:21 Cloudy 60 15.6 57 13.9 90 90 N N/A 30.03 1017 10 16 N/A
10:37 pm 22:37 Cloudy 60 15.6 58 14.4 93 93 N N/A 30.03 1017 9 14 N/A
10:53 pm 22:53 Cloudy with Light Rain 59 15 58 14.4 96 96 N N/A 30.01 1016 3 5 0.01 0.25
11:09 pm 23:09 Cloudy with Light Rain 59 15 58 14.4 96 96 N N/A 30.03 1017 4 6 0.03 0.76
11:18 pm 23:18 Cloudy with Rain 59 15 58 14.4 96 96 N N/A 30.03 1017 3 4 0.06 1.52
11:53 pm 23:53 Cloudy with Rain 59 15 58 14.4 96 96 NE 5 7 30.01 1016 2 3 0.17 4.32

Powered by AerisWeather